Weather History for Mount Pleasant, SC

Change the Weather History Date:

Tuesday, October 16, 2012

  Actual Average (KCHS) Record (KCHS)
Temperature  
Mean Temperature 63 °F 67 °F  
Max Temperature 73 °F 77 °F 87 °F (1942)
Min Temperature 53 °F 57 °F 38 °F (1978)
Degree Days  
Heating Degree Days 2 2  
Month to date heating degree days 20  
Since 1 July heating degree days 23  
Cooling Degree Days 0 4  
Month to date cooling degree days 86  
Year to date cooling degree days 2224  
Growing Degree Days 13 (Base 50)    
Moisture  
Dew Point 51 °F    
Average Humidity 70    
Maximum Humidity 100    
Minimum Humidity 36    
Precipitation  
Precipitation 0.00 in 0.12 in 1.55 in (1968)
Month to date precipitation 2.23  
Year to date precipitation 43.97  
Sea Level Pressure  
Sea Level Pressure 29.91 in    
Wind  
Wind Speed 5 mph (North)    
Max Wind Speed 9 mph    
Max Gust Speed -    
Visibility 10 miles    
Events Rain    
T = Trace of Precipitation, MM = Missing Value Source: NWS Daily Summary

Daily Weather History Graph

Daily Weather History Graph

Search for Another Location

Airport:

Trip Planner

Search our weather history database for the weather conditions in past years. The results will help you decide how hot, cold, wet, or windy it might be!

Date:

Astronomy

Oct. 16, 2012 Rise Set
Actual Time 7:24 AM EDT 6:44 PM EDT
Civil Twilight 6:59 AM EDT 7:09 PM EDT
Nautical Twilight 6:30 AM EDT 7:37 PM EDT
Astronomical Twilight 6:02 AM EDT 8:06 PM EDT
Moon 8:38 AM EDT (10/16) 7:35 PM EDT (10/16)
Length of Visible Light 12h 09m
Length of Day
11h 19m
New Moon, 2% of the Moon is Illuminated
Oct 16
New Moon
Oct 21
First Quarter
Oct 29
Full
Nov 6
Last Quarter
Nov 13
New

Hourly Weather History & Observations

Time (EDT) Temp. Dew Point Humidity Pressure Visibility Wind Dir Wind Speed Gust Speed Precip Events Conditions
12:15 AM 66.2 °F 60.8 °F 83% 29.85 in 10.0 mi NNW 4.6 mph - N/A Rain Light Rain
12:35 AM 66.2 °F 60.8 °F 83% 29.85 in 10.0 mi NNW 4.6 mph - N/A   Clear
12:55 AM 64.4 °F 60.8 °F 88% 29.85 in 10.0 mi NNW 5.8 mph - N/A Rain Light Rain
1:15 AM 64.4 °F 59.0 °F 83% 29.85 in 10.0 mi NNW 6.9 mph - N/A   Clear
1:35 AM 64.4 °F 59.0 °F 83% 29.86 in 10.0 mi NNW 4.6 mph - N/A Rain Light Rain
1:55 AM 64.4 °F 57.2 °F 77% 29.86 in 10.0 mi NNW 5.8 mph - N/A   Clear
2:15 AM 62.6 °F 57.2 °F 82% 29.86 in 10.0 mi NNW 5.8 mph - N/A Rain Light Rain
2:35 AM 62.6 °F 55.4 °F 77% 29.86 in 10.0 mi North 5.8 mph - N/A   Clear
2:55 AM 62.6 °F 53.6 °F 72% 29.86 in 10.0 mi North 4.6 mph - N/A   Clear
3:15 AM 60.8 °F 53.6 °F 77% 29.86 in 10.0 mi North 4.6 mph - N/A   Clear
3:35 AM 60.8 °F 53.6 °F 77% 29.87 in 10.0 mi North 4.6 mph - N/A   Clear
3:55 AM 60.8 °F 51.8 °F 72% 29.87 in 10.0 mi North 4.6 mph - N/A   Clear
4:15 AM 59.0 °F 51.8 °F 77% 29.87 in 10.0 mi North 4.6 mph - N/A Rain Light Rain
4:35 AM 57.2 °F 51.8 °F 82% 29.88 in 10.0 mi North 3.5 mph - N/A   Clear
4:55 AM 57.2 °F 51.8 °F 82% 29.88 in 10.0 mi North 4.6 mph - N/A   Clear
5:15 AM 57.2 °F 51.8 °F 82% 29.89 in 10.0 mi North 3.5 mph - N/A   Clear
5:35 AM 55.4 °F 51.8 °F 88% 29.90 in 10.0 mi North 5.8 mph - N/A   Clear
6:35 AM 55.4 °F 48.2 °F 77% 29.92 in 10.0 mi North 5.8 mph - N/A   Clear
6:55 AM 53.6 °F 48.2 °F 82% 29.93 in 10.0 mi North 4.6 mph - N/A   Clear
7:15 AM 53.6 °F 48.2 °F 82% 29.93 in 10.0 mi North 4.6 mph - N/A   Clear
7:55 AM 53.6 °F 48.2 °F 82% 29.94 in 10.0 mi North 6.9 mph - N/A   Clear
8:15 AM 53.6 °F 48.2 °F 82% 29.95 in 10.0 mi North 5.8 mph - N/A Rain Light Rain
8:35 AM 55.4 °F 46.4 °F 72% 29.95 in 10.0 mi North 6.9 mph - N/A   Clear
8:55 AM 57.2 °F 46.4 °F 67% 29.96 in 10.0 mi North 6.9 mph - N/A Rain Light Rain
9:15 AM 57.2 °F 46.4 °F 67% 29.96 in 10.0 mi North 9.2 mph - N/A   Clear
9:35 AM 60.8 °F 46.4 °F 59% 29.97 in 10.0 mi North 5.8 mph - N/A Rain Light Rain
9:55 AM 60.8 °F 46.4 °F 59% 29.97 in 10.0 mi North 4.6 mph - N/A Rain Light Rain
10:15 AM 62.6 °F 46.4 °F 55% 29.96 in 10.0 mi North 9.2 mph - N/A   Clear
10:35 AM 62.6 °F 46.4 °F 55% 29.96 in 10.0 mi NNE 5.8 mph - N/A   Clear
10:55 AM 64.4 °F 46.4 °F 52% 29.96 in 10.0 mi NE 8.1 mph - N/A   Clear
11:15 AM 64.4 °F 46.4 °F 52% 29.96 in 10.0 mi NNE 6.9 mph - N/A Rain Light Rain
11:35 AM 66.2 °F 46.4 °F 49% 29.96 in 10.0 mi North 8.1 mph - N/A   Clear
11:55 AM 66.2 °F 46.4 °F 49% 29.96 in 10.0 mi North 5.8 mph - N/A Rain Light Rain
12:15 PM 66.2 °F 46.4 °F 49% 29.95 in 10.0 mi North 8.1 mph - N/A Rain Light Rain
12:35 PM 69.8 °F 46.4 °F 43% 29.95 in 10.0 mi NNW 3.5 mph - N/A Rain Light Rain
12:55 PM 69.8 °F 46.4 °F 43% 29.94 in 10.0 mi North 8.1 mph - N/A Rain Light Rain
1:15 PM 69.8 °F 46.4 °F 43% 29.93 in 10.0 mi North 5.8 mph - N/A   Clear
1:35 PM 69.8 °F 46.4 °F 43% 29.92 in 10.0 mi North 5.8 mph - N/A   Clear
1:55 PM 69.8 °F 46.4 °F 43% 29.91 in 10.0 mi NNW 5.8 mph - N/A   Clear
2:15 PM 71.6 °F 44.6 °F 38% 29.90 in 10.0 mi North 4.6 mph - N/A   Clear
2:35 PM 71.6 °F 46.4 °F 41% 29.90 in 10.0 mi East 4.6 mph - N/A   Clear
2:55 PM 71.6 °F 44.6 °F 38% 29.90 in 10.0 mi NNW 3.5 mph - N/A   Clear
3:15 PM 73.4 °F 44.6 °F 36% 29.89 in 10.0 mi NNW 6.9 mph - N/A   Clear
3:35 PM 73.4 °F 44.6 °F 36% 29.88 in 10.0 mi North 4.6 mph - N/A   Clear
3:55 PM 73.4 °F 44.6 °F 36% 29.88 in 10.0 mi Calm Calm - N/A   Clear
4:15 PM 73.4 °F 44.6 °F 36% 29.88 in 10.0 mi North 6.9 mph - N/A   Clear
4:35 PM 73.4 °F 44.6 °F 36% 29.87 in 10.0 mi NNE 3.5 mph - N/A   Clear
4:55 PM 71.6 °F 51.8 °F 50% 29.88 in 10.0 mi SE 3.5 mph - N/A   Clear
5:15 PM 69.8 °F 51.8 °F 53% 29.89 in 10.0 mi SE 3.5 mph - N/A   Clear
5:35 PM 69.8 °F 51.8 °F 53% 29.89 in 10.0 mi SE 3.5 mph - N/A   Clear
5:55 PM 69.8 °F 53.6 °F 56% 29.88 in 10.0 mi SE 3.5 mph - N/A Rain Light Rain
6:15 PM 66.2 °F 53.6 °F 64% 29.89 in 10.0 mi Calm Calm - N/A Rain Light Rain
6:35 PM 62.6 °F 53.6 °F 72% 29.90 in 10.0 mi Calm Calm - N/A   Clear
6:55 PM 60.8 °F 53.6 °F 77% 29.90 in 10.0 mi Calm Calm - N/A Rain Light Rain
7:15 PM 59.0 °F 53.6 °F 82% 29.91 in 10.0 mi Calm Calm - N/A   Clear
7:35 PM 57.2 °F 53.6 °F 88% 29.91 in 10.0 mi Calm Calm - N/A Rain Light Rain
7:55 PM 57.2 °F 53.6 °F 88% 29.91 in 10.0 mi Calm Calm - N/A   Clear
8:15 PM 57.2 °F 53.6 °F 88% 29.91 in 10.0 mi Calm Calm - N/A   Clear
8:35 PM 55.4 °F 53.6 °F 94% 29.92 in 10.0 mi Calm Calm - N/A   Clear
8:55 PM 55.4 °F 53.6 °F 94% 29.92 in 9.0 mi Calm Calm - N/A   Clear
9:15 PM 55.4 °F 53.6 °F 94% 29.93 in 8.0 mi Calm Calm - N/A   Clear
9:35 PM 55.4 °F 53.6 °F 94% 29.92 in 8.0 mi Calm Calm - N/A Rain Light Rain
9:55 PM 53.6 °F 53.6 °F 100% 29.92 in 8.0 mi Calm Calm - N/A   Clear
10:15 PM 53.6 °F 53.6 °F 100% 29.93 in 7.0 mi Calm Calm - N/A   Clear
10:35 PM 53.6 °F 53.6 °F 100% 29.93 in 8.0 mi Calm Calm - N/A   Clear
10:55 PM 53.6 °F 53.6 °F 100% 29.93 in 7.0 mi Calm Calm - N/A   Clear
11:15 PM 53.6 °F 53.6 °F 100% 29.93 in 8.0 mi Calm Calm - N/A   Clear
11:35 PM 53.6 °F 53.6 °F 100% 29.93 in 7.0 mi Calm Calm - N/A   Clear
11:55 PM 53.6 °F 51.8 °F 94% 29.93 in 7.0 mi Calm Calm - N/A Rain Light Rain